CW0352 Weather Reports


Display with metric or nautical units.
time (UTC)temp
F
wind
direction
speed
MPH
gust
MPH
rain 1hr
in
rain 24hr
in
rain mn
in
humidity
%
barometer
mb
20260504190849 88 33 2.0 5.0 0.00 0.00 0.00 15 1006.6
20260504190734 88 33 2.0 5.0 0.00 0.00 0.00 15 1006.6
20260504190126 87 35 2.0 5.0 0.00 0.00 0.00 16 1006.7
20260504185616 87 344 1.0 4.0 0.00 0.00 0.00 17 1006.6
20260504185049 85 337 2.0 6.0 0.00 0.00 0.00 17 1006.6
20260504184547 84 35 3.0 6.0 0.00 0.00 0.00 17 1006.7
20260504184043 83 0 3.0 8.0 0.00 0.00 0.00 18 1006.7
20260504183540 83 46 3.0 8.0 0.00 0.00 0.00 17 1006.9
20260504183241 82 104 2.0 8.0 0.00 0.00 0.00 18 1006.9
20260504183123 82 104 2.0 8.0 0.00 0.00 0.00 18 1006.9
20260504182446 82 101 3.0 6.0 0.00 0.00 0.00 19 1007.0
20260504181920 80 0 4.0 8.0 0.00 0.00 0.00 19 1007.1
20260504181636 80 0 4.0 9.0 0.00 0.00 0.00 20 1007.1
20260504181512 80 0 4.0 9.0 0.00 0.00 0.00 20 1007.1
20260504180906 80 0 4.0 9.0 0.00 0.00 0.00 21 1007.2
20260504180402 79 0 3.0 8.0 0.00 0.00 0.00 21 1007.5
20260504175834 79 0 2.0 10.0 0.00 0.00 0.00 21 1007.5
20260504175307 78 0 4.0 10.0 0.00 0.00 0.00 21 1007.6
20260504174743 78 0 5.0 12.0 0.00 0.00 0.00 20 1007.6
20260504174451 78 0 5.0 12.0 0.00 0.00 0.00 21 1007.6
20260504174321 78 0 5.0 12.0 0.00 0.00 0.00 21 1007.6
20260504173709 78 0 5.0 11.0 0.00 0.00 0.00 21 1007.7
20260504173144 79 0 5.0 11.0 0.00 0.00 0.00 21 1007.8
20260504172642 79 0 4.0 10.0 0.00 0.00 0.00 22 1007.7
20260504172136 79 0 4.0 11.0 0.00 0.00 0.00 21 1007.8
20260504171633 78 0 5.0 11.0 0.00 0.00 0.00 21 1007.9
20260504171106 78 0 4.0 10.0 0.00 0.00 0.00 21 1007.9
20260504170607 78 0 4.0 11.0 0.00 0.00 0.00 23 1007.9
20260504160302 76 0 3.0 8.0 0.00 0.00 0.00 25 1007.8
20260504151058 70 0 5.0 12.0 0.00 0.00 0.00 29 1008.3
20260504150619 69 0 4.0 13.0 0.00 0.00 0.00 30 1008.3
20260504150607 70 0 6.0 13.0 0.00 0.00 0.00 30 1008.3
20260504150214 69 0 4.0 13.0 0.00 0.00 0.00 30 1008.3
20260504141328 61 0 4.0 8.0 0.00 0.00 0.00 47 1008.7
20260504140805 60 0 3.0 8.0 0.00 0.00 0.00 49 1008.8
20260504140303 58 0 3.0 6.0 0.00 0.00 0.00 50 1008.7
20260504130502 46 0 3.0 6.0 0.00 0.00 0.00 72 1008.9
20260504110417 41 0 2.0 5.0 0.00 0.00 0.00 71 1007.8
20260504100358 41 0 2.0 4.0 0.00 0.00 0.00 69 1008.3
20260504100242 41 0 2.0 4.0 0.00 0.00 0.00 69 1008.3
20260504081925 44 0 1.0 2.0 0.00 0.00 0.00 66 1009.0
20260504081810 44 0 1.0 2.0 0.00 0.00 0.00 66 1009.0
20260504081628 44 0 1.0 2.0 0.00 0.00 0.00 66 1009.0
20260504081245 44 0 1.0 2.0 0.00 0.00 0.00 66 1009.0
20260504080635 44 0 1.0 3.0 0.00 0.00 0.00 65 1009.2
20260504080118 44 0 2.0 5.0 0.00 0.00 0.00 65 1009.2
20260504070318 46 0 0.0 2.0 0.00 0.00 0.00 59 1009.5
20260504060119 56 0 0.0 0.0 0.00 0.00 0.00 47 1009.8
20260504050314 59 0 3.0 8.0 0.00 0.00 0.00 43 1009.9
20260504045744 60 0 3.0 6.0 0.00 0.00 0.00 42 1010.0
20260504045218 60 0 3.0 8.0 0.00 0.00 0.00 41 1010.2
20260504044656 60 0 3.0 8.0 0.00 0.00 0.00 41 1010.2
20260504044133 61 0 3.0 6.0 0.00 0.00 0.00 41 1010.1
20260504043634 61 0 4.0 6.0 0.00 0.00 0.00 41 1010.2
20260504043105 61 0 4.0 8.0 0.00 0.00 0.00 40 1010.2
20260504042552 61 0 4.0 8.0 0.00 0.00 0.00 40 1010.3
20260504042017 62 0 4.0 11.0 0.00 0.00 0.00 39 1010.4
20260504041445 62 0 5.0 11.0 0.00 0.00 0.00 38 1010.5
20260504041149 62 0 5.0 12.0 0.00 0.00 0.00 38 1010.4
20260504041024 62 0 5.0 12.0 0.00 0.00 0.00 38 1010.4
20260504040424 63 0 5.0 12.0 0.00 0.00 0.00 38 1010.5
20260504035912 63 0 5.0 10.0 0.00 0.00 0.00 37 1010.6
20260504035346 63 0 5.0 10.0 0.00 0.00 0.00 36 1010.5
20260504034844 63 0 5.0 10.0 0.00 0.00 0.00 36 1010.5
20260504034316 64 0 5.0 12.0 0.00 0.00 0.00 36 1010.6
20260504034007 64 0 5.0 11.0 0.00 0.00 0.00 36 1010.6
20260504033852 64 0 5.0 11.0 0.00 0.00 0.00 36 1010.6
20260504033230 64 0 5.0 10.0 0.00 0.00 0.00 35 1010.5
20260504032719 64 0 5.0 10.0 0.00 0.00 0.00 35 1010.6
20260504032151 64 0 4.0 9.0 0.00 0.00 0.00 34 1010.5
20260504031855 64 0 5.0 10.0 0.00 0.00 0.00 34 1010.5
20260504031732 64 0 5.0 10.0 0.00 0.00 0.00 34 1010.5
20260504031057 65 0 5.0 10.0 0.00 0.00 0.00 33 1010.5
20260504030532 65 0 4.0 10.0 0.00 0.00 0.00 33 1010.5
20260504030028 65 0 5.0 10.0 0.00 0.00 0.00 32 1010.5
20260504025523 65 0 5.0 10.0 0.00 0.00 0.00 32 1010.4
20260504024957 66 0 4.0 9.0 0.00 0.00 0.00 31 1010.3
20260504024444 66 0 4.0 8.0 0.00 0.00 0.00 31 1010.3
20260504024242 66 0 3.0 9.0 0.00 0.00 0.00 31 1010.2
20260504024208 67 0 3.0 8.0 0.00 0.00 0.00 30 1010.2
20260504024118 66 0 3.0 9.0 0.00 0.00 0.00 31 1010.2
20260504023505 67 0 3.0 8.0 0.00 0.00 0.00 30 1010.2
20260504022829 68 0 3.0 8.0 0.00 0.00 0.00 30 1010.2
20260504022327 69 0 3.0 8.0 0.00 0.00 0.00 29 1010.1
20260504021802 69 0 3.0 10.0 0.00 0.00 0.00 28 1010.1
20260504021732 70 0 4.0 10.0 0.00 0.00 0.00 28 1010.1
20260504021337 70 0 4.0 10.0 0.00 0.00 0.00 28 1010.1
20260504020731 70 0 5.0 9.0 0.00 0.00 0.00 27 1010.1
20260504020208 71 0 5.0 10.0 0.00 0.00 0.00 27 1010.0
20260504015652 71 0 5.0 10.0 0.00 0.00 0.00 26 1010.0
20260504015525 71 0 4.0 10.0 0.00 0.00 0.00 26 1010.0
20260504015445 71 0 4.0 10.0 0.00 0.00 0.00 26 1010.0
20260504014645 72 0 4.0 10.0 0.00 0.00 0.00 25 1009.9
20260504014415 72 0 4.0 11.0 0.00 0.00 0.00 25 1010.0
20260504014251 72 0 4.0 11.0 0.00 0.00 0.00 25 1010.0
20260504013646 73 0 3.0 11.0 0.00 0.00 0.00 24 1010.0
20260504013141 74 0 2.0 5.0 0.00 0.00 0.00 23 1010.0
20260504012612 75 0 1.0 4.0 0.00 0.00 0.00 23 1010.0
20260504012113 75 0 2.0 4.0 0.00 0.00 0.00 22 1009.9
20260504011601 76 0 2.0 4.0 0.00 0.00 0.00 21 1010.0
20260504011055 76 0 2.0 5.0 0.00 0.00 0.00 21 1010.0
20260504010553 77 0 2.0 5.0 0.00 0.00 0.00 21 1009.9
20260504010146 78 46 2.0 6.0 0.00 0.00 0.00 20 1010.1
20260504010110 77 0 2.0 4.0 0.00 0.00 0.00 20 1010.0
20260504005830 77 0 2.0 6.0 0.00 0.00 0.00 19 1010.0
20260504005627 77 0 2.0 6.0 0.00 0.00 0.00 19 1010.0
20260504005419 78 46 2.0 6.0 0.00 0.00 0.00 20 1010.1
20260504004713 78 49 3.0 7.0 0.00 0.00 0.00 20 1010.2
20260504004557 78 49 3.0 7.0 0.00 0.00 0.00 20 1010.2
20260504003949 77 346 3.0 7.0 0.00 0.00 0.00 19 1010.2
20260504003424 77 0 3.0 8.0 0.00 0.00 0.00 20 1010.2
20260504002858 77 0 2.0 8.0 0.00 0.00 0.00 20 1010.2
20260504002618 78 0 2.0 4.0 0.00 0.00 0.00 20 1010.3
20260504002457 78 0 2.0 4.0 0.00 0.00 0.00 20 1010.3
20260504002117 78 0 2.0 8.0 0.00 0.00 0.00 19 1010.4
20260504001952 78 0 2.0 8.0 0.00 0.00 0.00 19 1010.4
20260504001332 78 0 3.0 8.0 0.00 0.00 0.00 18 1010.3
20260504001041 79 0 3.0 6.0 0.00 0.00 0.00 18 1010.4
20260504000911 79 0 3.0 6.0 0.00 0.00 0.00 18 1010.4
20260504000249 79 0 3.0 5.0 0.00 0.00 0.00 17 1010.4
20260504000046 80 0 3.0 9.0 0.00 0.00 0.00 17 1010.4
20260504000011 80 0 3.0 9.0 0.00 0.00 0.00 17 1010.4
20260503235215 81 60 2.0 9.0 0.00 0.00 0.00 16 1010.5
20260503234645 82 17 1.0 7.0 0.00 0.00 0.00 15 1010.4
20260503234144 82 16 2.0 7.0 0.00 0.00 0.00 17 1010.5
20260503233639 82 326 2.0 5.0 0.00 0.00 0.00 17 1010.5
20260503233136 82 304 2.0 5.0 0.00 0.00 0.00 16 1010.5
20260503232620 82 65 3.0 7.0 0.00 0.00 0.00 15 1010.5
20260503232119 82 57 2.0 6.0 0.00 0.00 0.00 16 1010.5
20260503231549 82 57 2.0 6.0 0.00 0.00 0.00 17 1010.6
20260503231307 82 57 2.0 6.0 0.00 0.00 0.00 17 1010.6
20260503231149 82 57 2.0 6.0 0.00 0.00 0.00 17 1010.6
20260503230524 81 51 4.0 11.0 0.00 0.00 0.00 17 1010.6
20260503225951 81 57 3.0 11.0 0.00 0.00 0.00 15 1010.6
20260503225447 82 59 3.0 6.0 0.00 0.00 0.00 17 1010.6
20260503224947 82 61 3.0 10.0 0.00 0.00 0.00 16 1010.8
20260503224702 83 61 3.0 10.0 0.00 0.00 0.00 17 1010.8
20260503224540 83 61 3.0 10.0 0.00 0.00 0.00 17 1010.8
20260503223941 83 119 2.0 9.0 0.00 0.00 0.00 16 1010.8
20260503223432 83 87 2.0 9.0 0.00 0.00 0.00 16 1010.9
20260503222933 82 86 4.0 10.0 0.00 0.00 0.00 16 1010.9
20260503222413 83 89 3.0 10.0 0.00 0.00 0.00 16 1011.0
20260503221906 84 336 1.0 5.0 0.00 0.00 0.00 15 1011.0
20260503221402 84 49 2.0 4.0 0.00 0.00 0.00 16 1011.0
20260503220859 83 49 2.0 6.0 0.00 0.00 0.00 16 1011.2
20260503220401 83 44 1.0 6.0 0.00 0.00 0.00 16 1011.4
20260503215857 83 49 2.0 5.0 0.00 0.00 0.00 16 1011.5
20260503215402 83 333 3.0 7.0 0.00 0.00 0.00 17 1011.6
20260503215338 83 41 2.0 6.0 0.00 0.00 0.00 17 1011.5
20260503215304 83 333 3.0 7.0 0.00 0.00 0.00 17 1011.6
20260503214545 83 57 3.0 9.0 0.00 0.00 0.00 18 1011.7
20260503214418 83 57 3.0 9.0 0.00 0.00 0.00 18 1011.7
20260503213811 84 69 1.0 6.0 0.00 0.00 0.00 17 1011.9
20260503213311 84 71 1.0 4.0 0.00 0.00 0.00 18 1011.9
20260503212759 83 79 2.0 7.0 0.00 0.00 0.00 20 1011.9
20260503212305 81 80 3.0 9.0 0.00 0.00 0.00 19 1011.9
20260503211757 81 88 4.0 7.0 0.00 0.00 0.00 19 1012.1
20260503211257 81 37 3.0 9.0 0.00 0.00 0.00 18 1012.1
20260503211014 82 52 2.0 7.0 0.00 0.00 0.00 20 1012.2
20260503210900 82 52 2.0 7.0 0.00 0.00 0.00 20 1012.2
20260503210503 81 350 2.0 6.0 0.00 0.00 0.00 18 1012.3
20260503210341 81 350 2.0 6.0 0.00 0.00 0.00 18 1012.3
20260503205740 82 100 2.0 6.0 0.00 0.00 0.00 18 1012.4
20260503205214 81 338 2.0 8.0 0.00 0.00 0.00 18 1012.4
20260503204650 81 0 2.0 6.0 0.00 0.00 0.00 20 1012.5
20260503204127 80 0 3.0 9.0 0.00 0.00 0.00 21 1012.7
20260503203602 79 0 4.0 10.0 0.00 0.00 0.00 20 1012.7
20260503203059 79 0 4.0 10.0 0.00 0.00 0.00 20 1012.7
20260503202559 79 0 5.0 10.0 0.00 0.00 0.00 20 1012.8
20260503202046 79 0 5.0 10.0 0.00 0.00 0.00 19 1013.0
20260503201546 80 0 3.0 9.0 0.00 0.00 0.00 19 1013.0
20260503201412 81 48 3.0 10.0 0.00 0.00 0.00 18 1013.0
20260503201341 81 48 3.0 10.0 0.00 0.00 0.00 18 1013.0
20260503200739 80 0 3.0 10.0 0.00 0.00 0.00 19 1013.1
20260503200623 80 0 3.0 10.0 0.00 0.00 0.00 19 1013.1
20260503200243 80 0 4.0 11.0 0.00 0.00 0.00 20 1013.2
20260503200118 80 0 4.0 11.0 0.00 0.00 0.00 20 1013.2
20260503195510 79 0 5.0 11.0 0.00 0.00 0.00 20 1013.2
20260503195225 79 0 5.0 10.0 0.00 0.00 0.00 20 1013.1
20260503195112 79 0 5.0 10.0 0.00 0.00 0.00 20 1013.1
20260503194507 79 0 4.0 10.0 0.00 0.00 0.00 21 1013.1
20260503194008 79 0 4.0 12.0 0.00 0.00 0.00 21 1013.1
20260503193459 78 0 5.0 12.0 0.00 0.00 0.00 21 1013.2
20260503192934 78 0 5.0 12.0 0.00 0.00 0.00 21 1013.2
20260503192657 79 0 5.0 12.0 0.00 0.00 0.00 20 1013.3
20260503192541 79 0 5.0 12.0 0.00 0.00 0.00 20 1013.3
20260503191906 79 0 5.0 10.0 0.00 0.00 0.00 20 1013.3
20260503191339 79 0 4.0 11.0 0.00 0.00 0.00 21 1013.2
20260503191049 79 0 3.0 11.0 0.00 0.00 0.00 21 1013.3